Time,TemperatureF,DewpointF,PressureIn,WindDirection,WindDirectionDegrees,WindSpeedMPH,WindSpeedGustMPH,Humidity,HourlyPrecipIn,Conditions,Clouds,dailyrainin,SoftwareType,DateUTC
2013-03-01 00:00:00,21.9,17.0,30.14,NNW,337,6.3,-999.0,81,-99.99,,,0.00,Acu-Link.com,2013-03-01 06:00:00,
2013-03-01 00:15:00,21.9,17.0,30.14,NNW,337,5.3,-999.0,81,-99.99,,,0.00,Acu-Link.com,2013-03-01 06:15:00,
2013-03-01 00:30:00,21.7,16.8,30.14,NNE,22,7.8,-999.0,81,-99.99,,,0.00,Acu-Link.com,2013-03-01 06:30:00,
2013-03-01 00:46:00,21.7,17.1,30.14,NW,315,5.3,-999.0,82,-99.99,,,0.00,Acu-Link.com,2013-03-01 06:46:00,
2013-03-01 01:01:00,21.6,17.3,30.15,NW,315,11.9,-999.0,83,-99.99,,,0.00,Acu-Link.com,2013-03-01 07:01:00,
2013-03-01 01:16:00,21.6,17.3,30.15,WNW,292,8.9,-999.0,83,-99.99,,,0.00,Acu-Link.com,2013-03-01 07:16:00,
2013-03-01 01:31:00,21.6,17.3,30.15,NW,315,6.8,-999.0,83,-99.99,,,0.00,Acu-Link.com,2013-03-01 07:31:00,
2013-03-01 01:46:00,21.6,17.3,30.15,NW,315,9.4,-999.0,83,-99.99,,,0.00,Acu-Link.com,2013-03-01 07:46:00,
2013-03-01 02:01:00,21.6,17.3,30.15,WNW,292,6.8,-999.0,83,-99.99,,,0.00,Acu-Link.com,2013-03-01 08:01:00,
2013-03-01 02:17:00,21.6,17.3,30.15,NW,315,11.4,-999.0,83,-99.99,,,0.00,Acu-Link.com,2013-03-01 08:17:00,
2013-03-01 02:32:00,21.6,17.3,30.15,NNW,337,7.3,-999.0,83,-99.99,,,0.00,Acu-Link.com,2013-03-01 08:32:00,
2013-03-01 02:47:00,21.7,17.3,30.15,West,270,7.8,-999.0,83,-99.99,,,0.00,Acu-Link.com,2013-03-01 08:47:00,
2013-03-01 03:19:00,21.7,17.3,30.15,NNW,337,6.8,-999.0,83,-99.99,,,0.00,Acu-Link.com,2013-03-01 09:19:00,
2013-03-01 03:34:00,21.7,17.3,30.16,NNW,337,5.8,-999.0,83,-99.99,,,0.00,Acu-Link.com,2013-03-01 09:34:00,
2013-03-01 03:50:00,21.6,17.5,30.15,NW,315,7.8,-999.0,84,-99.99,,,0.00,Acu-Link.com,2013-03-01 09:50:00,
2013-03-01 04:05:00,21.4,17.3,30.16,NNW,337,5.8,-999.0,84,-99.99,,,0.00,Acu-Link.com,2013-03-01 10:05:00,
2013-03-01 04:20:00,21.2,17.1,30.16,NNW,337,10.4,-999.0,84,-99.99,,,0.00,Acu-Link.com,2013-03-01 10:20:00,
2013-03-01 04:35:00,21.0,16.9,30.16,NW,315,5.3,-999.0,84,-99.99,,,0.00,Acu-Link.com,2013-03-01 10:35:00,
2013-03-01 04:50:00,20.8,16.7,30.16,NNW,337,10.4,-999.0,84,-99.99,,,0.00,Acu-Link.com,2013-03-01 10:50:00,
2013-03-01 05:05:00,20.8,17.0,30.16,NNW,337,6.3,-999.0,85,-99.99,,,0.00,Acu-Link.com,2013-03-01 11:05:00,
2013-03-01 05:21:00,20.7,16.9,30.17,NNE,22,7.3,-999.0,85,-99.99,,,0.00,Acu-Link.com,2013-03-01 11:21:00,
2013-03-01 05:36:00,20.7,16.9,30.17,North,0,5.8,-999.0,85,-99.99,,,0.00,Acu-Link.com,2013-03-01 11:36:00,
2013-03-01 05:51:00,20.5,16.7,30.18,NNW,337,7.3,-999.0,85,-99.99,,,0.00,Acu-Link.com,2013-03-01 11:51:00,
2013-03-01 06:06:00,20.5,16.7,30.17,NNW,337,7.3,-999.0,85,-99.99,,,0.00,Acu-Link.com,2013-03-01 12:06:00,
2013-03-01 06:21:00,20.5,16.7,30.17,WNW,292,4.7,-999.0,85,-99.99,,,0.00,Acu-Link.com,2013-03-01 12:21:00,
2013-03-01 06:36:00,20.5,16.4,30.18,NW,315,4.2,-999.0,84,-99.99,,,0.00,Acu-Link.com,2013-03-01 12:36:00,
2013-03-01 06:51:00,20.5,16.4,30.19,NW,315,6.3,-999.0,84,-99.99,,,0.00,Acu-Link.com,2013-03-01 12:51:00,
2013-03-01 07:06:00,20.5,16.2,30.19,NNW,337,9.9,-999.0,83,-99.99,,,0.00,Acu-Link.com,2013-03-01 13:06:00,
2013-03-01 07:21:00,20.5,16.2,30.19,NNW,337,5.8,-999.0,83,-99.99,,,0.00,Acu-Link.com,2013-03-01 13:21:00,
2013-03-01 07:36:00,20.5,15.9,30.20,North,0,8.3,-999.0,82,-99.99,,,0.00,Acu-Link.com,2013-03-01 13:36:00,
2013-03-01 07:51:00,20.7,15.8,30.21,NE,45,4.7,-999.0,81,-99.99,,,0.00,Acu-Link.com,2013-03-01 13:51:00,
2013-03-01 08:06:00,20.3,15.1,30.21,North,0,9.4,-999.0,80,-99.99,,,0.00,Acu-Link.com,2013-03-01 14:06:00,
2013-03-01 08:21:00,20.5,14.8,30.22,NNW,337,11.9,-999.0,78,-99.99,,,0.00,Acu-Link.com,2013-03-01 14:21:00,
2013-03-01 08:37:00,21.2,14.5,30.22,NE,45,7.3,-999.0,75,-99.99,,,0.00,Acu-Link.com,2013-03-01 14:37:00,
2013-03-01 08:52:00,21.9,14.3,30.22,ENE,67,6.3,-999.0,72,-99.99,,,0.00,Acu-Link.com,2013-03-01 14:52:00,
2013-03-01 09:07:00,21.2,13.9,30.23,NNW,337,10.9,-999.0,73,-99.99,,,0.00,Acu-Link.com,2013-03-01 15:07:00,
2013-03-01 09:22:00,21.7,14.1,30.23,NNE,22,10.4,-999.0,72,-99.99,,,0.00,Acu-Link.com,2013-03-01 15:22:00,
2013-03-01 09:37:00,21.9,14.0,30.24,NNE,22,4.7,-999.0,71,-99.99,,,0.00,Acu-Link.com,2013-03-01 15:37:00,
2013-03-01 09:52:00,21.9,14.0,30.24,NE,45,10.9,-999.0,71,-99.99,,,0.00,Acu-Link.com,2013-03-01 15:52:00,
2013-03-01 10:07:00,21.9,14.0,30.24,NNE,22,8.3,-999.0,71,-99.99,,,0.00,Acu-Link.com,2013-03-01 16:07:00,
2013-03-01 10:22:00,22.6,14.3,30.24,ENE,67,9.9,-999.0,70,-99.99,,,0.00,Acu-Link.com,2013-03-01 16:22:00,
2013-03-01 10:37:00,22.3,14.3,30.24,West,270,6.3,-999.0,71,-99.99,,,0.00,Acu-Link.com,2013-03-01 16:37:00,
2013-03-01 10:52:00,22.8,14.5,30.25,NE,45,11.4,-999.0,70,-99.99,,,0.00,Acu-Link.com,2013-03-01 16:52:00,
2013-03-01 11:07:00,23.2,14.9,30.25,NNE,22,6.8,-999.0,70,-99.99,,,0.00,Acu-Link.com,2013-03-01 17:07:00,
2013-03-01 11:22:00,24.3,15.6,30.25,NNE,22,4.7,-999.0,69,-99.99,,,0.00,Acu-Link.com,2013-03-01 17:22:00,
2013-03-01 11:38:00,23.5,14.9,30.26,NNE,22,7.8,-999.0,69,-99.99,,,0.00,Acu-Link.com,2013-03-01 17:38:00,
2013-03-01 11:53:00,23.5,14.9,30.26,NNE,22,8.3,-999.0,69,-99.99,,,0.00,Acu-Link.com,2013-03-01 17:53:00,
2013-03-01 12:08:00,24.3,15.3,30.26,NE,45,7.8,-999.0,68,-99.99,,,0.00,Acu-Link.com,2013-03-01 18:08:00,
2013-03-01 12:23:00,24.1,15.1,30.26,NE,45,7.8,-999.0,68,-99.99,,,0.00,Acu-Link.com,2013-03-01 18:23:00,
2013-03-01 12:38:00,24.1,15.1,30.26,WNW,292,7.3,-999.0,68,-99.99,,,0.00,Acu-Link.com,2013-03-01 18:38:00,
2013-03-01 12:53:00,24.3,14.9,30.26,NNE,22,9.9,-999.0,67,-99.99,,,0.00,Acu-Link.com,2013-03-01 18:53:00,
2013-03-01 13:09:00,24.4,15.0,30.25,ENE,67,4.2,-999.0,67,-99.99,,,0.00,Acu-Link.com,2013-03-01 19:09:00,
2013-03-01 13:24:00,25.5,15.7,30.25,NE,45,8.3,-999.0,66,-99.99,,,0.00,Acu-Link.com,2013-03-01 19:24:00,
2013-03-01 13:39:00,24.8,15.8,30.25,NNE,22,7.3,-999.0,68,-99.99,,,0.00,Acu-Link.com,2013-03-01 19:39:00,
2013-03-01 13:54:00,24.8,15.8,30.24,NE,45,7.3,-999.0,68,-99.99,,,0.00,Acu-Link.com,2013-03-01 19:54:00,
2013-03-01 14:09:00,25.3,15.9,30.24,NW,315,6.8,-999.0,67,-99.99,,,0.00,Acu-Link.com,2013-03-01 20:09:00,
2013-03-01 14:24:00,25.2,16.5,30.23,NNW,337,8.9,-999.0,69,-99.99,,,0.00,Acu-Link.com,2013-03-01 20:24:00,
2013-03-01 14:39:00,24.8,16.1,30.23,NNE,22,10.9,-999.0,69,-99.99,,,0.00,Acu-Link.com,2013-03-01 20:39:00,
2013-03-01 14:54:00,25.0,16.3,30.22,NE,45,7.8,-999.0,69,-99.99,,,0.00,Acu-Link.com,2013-03-01 20:54:00,
2013-03-01 15:09:00,24.4,16.0,30.23,ENE,67,7.8,-999.0,70,-99.99,,,0.00,Acu-Link.com,2013-03-01 21:09:00,
2013-03-01 15:24:00,24.6,16.2,30.23,East,90,5.8,-999.0,70,-99.99,,,0.00,Acu-Link.com,2013-03-01 21:24:00,
2013-03-01 15:40:00,25.0,16.3,30.24,NNW,337,13.0,-999.0,69,-99.99,,,0.00,Acu-Link.com,2013-03-01 21:40:00,
2013-03-01 15:55:00,25.3,16.9,30.23,NNE,22,3.7,-999.0,70,-99.99,,,0.00,Acu-Link.com,2013-03-01 21:55:00,
2013-03-01 16:10:00,25.0,16.3,30.24,NE,45,7.8,-999.0,69,-99.99,,,0.00,Acu-Link.com,2013-03-01 22:10:00,
2013-03-01 16:25:00,24.6,15.9,30.24,NNE,22,6.3,-999.0,69,-99.99,,,0.00,Acu-Link.com,2013-03-01 22:25:00,
2013-03-01 16:40:00,24.1,16.1,30.25,NE,45,5.3,-999.0,71,-99.99,,,0.00,Acu-Link.com,2013-03-01 22:40:00,
2013-03-01 16:55:00,23.7,16.0,30.25,NNW,337,6.3,-999.0,72,-99.99,,,0.00,Acu-Link.com,2013-03-01 22:55:00,
2013-03-01 17:10:00,23.9,16.2,30.25,NE,45,7.8,-999.0,72,-99.99,,,0.00,Acu-Link.com,2013-03-01 23:10:00,
2013-03-01 17:25:00,23.4,16.0,30.25,NE,45,5.3,-999.0,73,-99.99,,,0.00,Acu-Link.com,2013-03-01 23:25:00,
2013-03-01 17:40:00,23.4,15.7,30.26,North,0,6.8,-999.0,72,-99.99,,,0.00,Acu-Link.com,2013-03-01 23:40:00,
2013-03-01 17:55:00,23.0,15.7,30.26,NNW,337,7.3,-999.0,73,-99.99,,,0.00,Acu-Link.com,2013-03-01 23:55:00,
2013-03-01 18:10:00,23.0,15.7,30.26,NW,315,7.8,-999.0,73,-99.99,,,0.00,Acu-Link.com,2013-03-02 00:10:00,
2013-03-01 18:26:00,21.9,15.2,30.26,North,0,7.3,-999.0,75,-99.99,,,0.00,Acu-Link.com,2013-03-02 00:26:00,
2013-03-01 18:41:00,21.4,15.3,30.26,NNE,22,5.8,-999.0,77,-99.99,,,0.00,Acu-Link.com,2013-03-02 00:41:00,
2013-03-01 18:56:00,21.0,14.9,30.27,NW,315,5.3,-999.0,77,-99.99,,,0.00,Acu-Link.com,2013-03-02 00:56:00,
2013-03-01 19:11:00,20.8,15.0,30.27,NNE,22,4.2,-999.0,78,-99.99,,,0.00,Acu-Link.com,2013-03-02 01:11:00,
2013-03-01 19:27:00,20.5,14.8,30.26,NNE,22,5.3,-999.0,78,-99.99,,,0.00,Acu-Link.com,2013-03-02 01:27:00,
2013-03-01 19:42:00,19.9,14.5,30.27,ENE,67,4.2,-999.0,79,-99.99,,,0.00,Acu-Link.com,2013-03-02 01:42:00,
2013-03-01 19:57:00,19.6,14.2,30.27,NNE,22,4.2,-999.0,79,-99.99,,,0.00,Acu-Link.com,2013-03-02 01:57:00,
2013-03-01 20:12:00,19.2,14.1,30.26,NNW,337,4.2,-999.0,80,-99.99,,,0.00,Acu-Link.com,2013-03-02 02:12:00,
2013-03-01 20:27:00,18.9,13.8,30.27,ENE,67,2.7,-999.0,80,-99.99,,,0.00,Acu-Link.com,2013-03-02 02:27:00,
2013-03-01 20:43:00,18.0,13.5,30.27,NNE,22,2.2,-999.0,82,-99.99,,,0.00,Acu-Link.com,2013-03-02 02:43:00,
2013-03-01 20:58:00,17.4,13.4,30.28,NNW,337,3.2,-999.0,84,-99.99,,,0.00,Acu-Link.com,2013-03-02 02:58:00,
2013-03-01 21:13:00,17.1,13.1,30.28,NNE,22,2.2,-999.0,84,-99.99,,,0.00,Acu-Link.com,2013-03-02 03:13:00,
2013-03-01 21:28:00,16.7,13.0,30.29,NNW,337,3.2,-999.0,85,-99.99,,,0.00,Acu-Link.com,2013-03-02 03:28:00,
2013-03-01 21:43:00,16.2,12.8,30.28,NE,45,2.7,-999.0,86,-99.99,,,0.00,Acu-Link.com,2013-03-02 03:43:00,
2013-03-01 21:59:00,16.3,12.9,30.28,NE,45,3.7,-999.0,86,-99.99,,,0.00,Acu-Link.com,2013-03-02 03:59:00,
2013-03-01 22:14:00,15.8,12.4,30.28,North,0,2.7,-999.0,86,-99.99,,,0.00,Acu-Link.com,2013-03-02 04:14:00,
2013-03-01 22:29:00,15.3,11.9,30.27,NE,45,2.7,-999.0,86,-99.99,,,0.00,Acu-Link.com,2013-03-02 04:29:00,
2013-03-01 22:45:00,15.1,11.9,30.27,NNE,22,2.7,-999.0,87,-99.99,,,0.00,Acu-Link.com,2013-03-02 04:45:00,
2013-03-01 23:00:00,14.9,11.7,30.26,NE,45,3.7,-999.0,87,-99.99,,,0.00,Acu-Link.com,2013-03-02 05:00:00,
2013-03-01 23:15:00,14.9,11.7,30.26,ENE,67,3.7,-999.0,87,-99.99,,,0.00,Acu-Link.com,2013-03-02 05:15:00,
2013-03-01 23:30:00,14.5,11.4,30.26,NE,45,3.2,-999.0,87,-99.99,,,0.00,Acu-Link.com,2013-03-02 05:30:00,
2013-03-01 23:45:00,13.8,10.9,30.26,ENE,67,2.7,-999.0,88,-99.99,,,0.00,Acu-Link.com,2013-03-02 05:45:00,